Flag for India Weather past 2 weeks in Sawai Madhopur, Rajasthan, India

Now
54 °F

Haze.


Feels Like: 54 °F
Forecast: 45 / 70 °F
Wind: 2 mph from North

Location: Jaipur / Sanganer

Current Time: Jan 31, 2015 at 12:12:24 AM

Latest Report: Jan 30, 2015 at 11:30 PM


Visibility: 1 mi

Pressure: 30.15 "Hg

Humidity: 54%

Dew point: 37 °F

Location of Sawai MadhopurLocation

Historic Weather in Sawai Madhopur — Graph

°F

Sawai Madhopur temperature yesterday

Maximum temperature yesterday: 68 °F (at 3:00 PM)
Minimum temperature yesterday: 45 °F (at 5:30 AM)
Average temperature yesterday: 56 °F

Past Weeks' High & Low Weather Summary

 TemperatureHumidityPressure
High72 °F (Jan 18, 2:00 PM)100% (Jan 15, 11:00 PM)30.24 "Hg (Jan 15, 11:00 PM)
Low43 °F (Jan 28, 7:00 AM)21% (Jan 28, 2:00 PM)30.01 "Hg (Jan 28, 4:00 PM)
Average58 °F74%30.11 "Hg
* Reported Jan 15 11:00 PM — Jan 30 11:00 PM, Sawai Madhopur, Weather by CustomWeather, © 2014

Note: Actual official high and low records may vary slightly from our data, if they occured in-between our weather recording intervals... More about our weather records

Advertising

Sawai Madhopur weather history for previous 24 hours

 ConditionsComfort  
Time TempWeatherWind HumidityBarometerVisibility
11:00 PM
Jan 30
52 °FHaze.3 mph67%30.15 "Hg1 mi
10:30 PM54 °FHaze.2 mph63%30.15 "Hg1 mi
10:00 PM57 °FHaze.No wind48%30.15 "Hg1 mi
9:30 PM57 °FHaze.2 mph51%30.15 "Hg1 mi
9:00 PM59 °FHaze.3 mph42%30.15 "Hg1 mi
8:30 PM59 °FHaze.2 mph48%30.15 "Hg1 mi
8:00 PM59 °FHaze.1 mph45%30.15 "Hg1 mi
7:00 PM63 °FHaze.No wind34%30.12 "Hg2 mi
6:00 PM66 °FHaze.3 mph26%30.12 "Hg2 mi
5:30 PM68 °FHaze.6 mph24%30.12 "Hg2 mi
5:00 PM68 °FHaze.7 mph24%30.12 "Hg2 mi
4:00 PM68 °FHaze.7 mph23%30.12 "Hg2 mi
3:30 PM68 °FHaze.7 mph24%30.12 "Hg2 mi
3:00 PM68 °FHaze.6 mph23%30.12 "Hg2 mi
2:00 PM66 °FHaze.9 mph28%30.15 "Hg2 mi
1:00 PM66 °FHaze.8 mph28%30.18 "Hg2 mi
12:30 PM64 °FHaze.6 mph30%30.21 "Hg2 mi
12:00 PM64 °FHaze.7 mph32%30.21 "Hg2 mi
10:30 AM59 °FHaze.5 mph45%30.24 "Hg1 mi
10:00 AM57 °FClear.6 mph51%30.24 "Hg1 mi
9:30 AM55 °FClear.3 mph59%30.24 "Hg1 mi
8:30 AM50 °FFog.2 mph88%30.21 "Hg1 mi
8:00 AM46 °FFog.2 mph87%30.21 "Hg1 mi
7:30 AM45 °FHaze.1 mph93%30.18 "Hg1 mi
7:00 AM45 °FHaze.1 mph93%30.18 "Hg1 mi
6:30 AM45 °FHaze.3 mph93%30.18 "Hg1 mi
6:00 AM45 °FHaze.2 mph93%30.15 "Hg1 mi
5:30 AM45 °FHaze.1 mph93%30.15 "Hg1 mi
5:00 AM46 °FHaze.No wind87%30.15 "Hg1 mi
4:00 AM46 °FHaze.No wind76%30.15 "Hg1 mi
3:00 AM52 °FHaze.3 mph62%30.15 "Hg1 mi
2:00 AM50 °FFog.3 mph67%30.15 "Hg1 mi
1:00 AM50 °FHaze.2 mph71%30.18 "Hg1 mi
12:00 AM54 °FHaze.No wind58%30.18 "Hg1 mi
Weather by CustomWeather, © 2014

See weather overviewHow to use our weather pages